Weather in Sarasota

United States     27°20′10″N   82°31′52″W
temp.,
°C
wind,
m/s
gust,
m/s
humid.,
%
clouds,
%
prec.,
mm/h
press.,
hPa
HPBL,
m
18 may, tue
tue1823:00+23e712595 0.0 1020606
02:00+21e512755 0.0 1019447
05:00+20e5108776 0.0 1019283
08:00+22e610735 0.0 1020398
11:00+28e68435 0.0 1020946
14:00+30ssw364575 0.0 10181497
17:00+28ese2851100 0.1 1017692
20:00+26e10135779 0.1 1018844
19 may, wed
wed1923:00+24e913665 0.0 1020849
02:00+22e71373100 0.0 1020775
05:00+21e61374100 0.0 1018569
08:00+22ene61268100 0.0 1020594
11:00+28e795299 0.0 10201144
14:00+31ese91044100 0.0 10181339
17:00+28e81054100 0.0 10181047
20:00+26e8115699 0.0 10201146
20 may, thu
thu2023:00+23e91373100 0.0 1020882
02:00+22e9147541 0.0 1020966
05:00+22e7137588 0.0 1019851
08:00+24e7116383 0.0 10211035
11:00+28e910477 0.0 10211376
14:00+30ese810385 0.0 10201150
17:00+31e10113718 0.0 10181244
20:00+24e10146344 0.0 1020827
21 may, fri
fri2123:00+23e712645 0.0 1022983
02:00+21ene612695 0.0 1022635
05:00+20ne6127746 0.0 1022427
08:00+23ene71162100 0.0 10231338
11:00+28e91145100 0.0 10231491
14:00+31ene91136100 0.0 10221264
17:00+31ene111137100 0.0 10201358
20:00+27ene9115589 0.0 10221041
22 may, sat
sat2223:00+23ene7127289 0.0 1024863
02:00+21ene6117098 0.0 1023715
05:00+19ene5107583 0.0 1022342
08:00+21ene58675 0.0 1023310
11:00+27ene564389 0.0 10231863
14:00+30e6738100 0.0 10211096
17:00+30ssw144051 0.0 10181296
20:00+27ssw16506 0.0 1019395